Regional Weather Roundup
Issued by NWS

Home | Current Version | Previous Version | Text Only | Print | Product List | Glossary On
Versions: 1 2 3 4 5 6 7 8 9 10 11 12 13 14 15 16 17 18 19 20 21 22 23 24 25 26 27 28 29 30 31 32 33 34 35 36 37 38 39 40 41 42 43 44 45 46 47 48 49 50
000
ASUS43 KLOT 240709
RWRIL

ILLINOIS REGIONAL WEATHER ROUNDUP
NATIONAL WEATHER SERVICE CHICAGO/ROMEOVILLE IL
200 AM CDT TUE OCT 24 2017

NOTE: "FAIR" INDICATES FEW OR NO CLOUDS BELOW 12,000 FEET WITH NO
SIGNIFICANT WEATHER AND/OR OBSTRUCTIONS TO VISIBILITY.

* THESE STATIONS ARE NOT UNDER NWS QUALITY CONTROL. THEY ALSO MAY NOT
  REPORT WEATHER SUCH AS PRECIPITATION OR FOG.

ILZ001-002-007-009-015-016-024-240800-
NORTHWEST ILLINOIS

CITY           SKY/WX    TMP DP  RH WIND       PRES   REMARKS
MOLINE         CLOUDY    50  33  52 NW20G28   29.68F
STERLING*      CLOUDY    48  42  80 W16         N/A
SAVANNA*       CLOUDY    49  40  73 NW14G20   29.63F
$$

ILZ003-004-008-010-011-017-018-240800-
NORTH CENTRAL ILLINOIS

CITY           SKY/WX    TMP DP  RH WIND       PRES   REMARKS
ROCKFORD       LGT RAIN  47  44  90 W9        29.60F
FREEPORT*      CLOUDY    46  41  82 W10       29.62F
ROCHELLE*      CLOUDY    47  43  86 W10       29.61F
DE KALB*       DRIZZLE   46  44  94 W9        29.59F
PERU*          CLOUDY    47  41  79 W14G22    29.63F
$$

ILZ005-006-012>014-019>023-240800-
NORTHEAST ILLINOIS

CITY           SKY/WX    TMP DP  RH WIND       PRES   REMARKS
CHICAGO-OHARE  LGT RAIN  49  46  90 W12       29.56F
CHICAGO-MIDWAY LGT RAIN  50  48  93 W9        29.56F FOG
AURORA         CLOUDY    48  45  89 W9        29.59F
LANSING*       LGT RAIN  49  48  99 W8        29.58F
JOLIET*        CLOUDY    49  46  87 W5        29.60F
WAUKEGAN       LGT RAIN  49  48  97 VRB6      29.52F
DUPAGE AIRPORT LGT RAIN  47  46  97 W12       29.57F FOG
KANKAKEE*      CLOUDY    49  44  83 W14G24    29.62S
WHEELING       LGT RAIN  50  48  93 W12       29.56F
MORRIS*        CLOUDY    48  44  85 W14       29.60F
ROMEOVILLE*    DRIZZLE   47  45  91 W10G21    29.59F
NORTHERLY ISL    N/A     50  47  89 SW12        N/A
$$

LMZ740>746-240800-
SOUTHERN LAKE MICHIGAN

STATION/POSITION SKY/WX   TEMP    WIND        PRES    VSBY  WAVE
                          AIR SEA DIR/SP/G                  HT/PER
                          (F)     (DEG/KT/KT) (MB)    (MI)  (FT/S)
SOUTHERN BUOY              54 60  320/ 16/ 19  998.7F
WILMETTE HARBOR            51 56  260/ 16/ 19   N/A           2/ 5
HARRISON CRIB              51     270/ 19/ 21   N/A
BURNHAM HARBOR             50     260/  8/ 12   N/A
CALUMET HARBOR                    250/  5/ 10 1000.7F
BURNS HARBOR               52     260/ 19/ 23 1001.7F
MICHIGAN CITY              51     250/ 28/ 31   N/A
MICHIGAN CITY 6N           52 57  270/ 21/ 27   N/A           6/ 4
ST. JOSEPH                 54 58  300/ 17/ 23 1000.0          6/ 4
$$

ILZ025>027-034>036-040-047-049-050-058-095>099-240800-
WEST-CENTRAL ILLINOIS

CITY           SKY/WX    TMP DP  RH WIND       PRES   REMARKS
QUINCY         CLOUDY    51  35  54 W15       29.79F
MACOMB*        CLOUDY    49  37  62 W20G26    29.75F
JACKSONVILLE*  CLOUDY    49  37  62 W14       29.77F
PITTSFIELD*    CLOUDY    51  36  55 W10G16    29.81F
$$

ILZ028>032-037-038-041>044-048-051>054-059>061-240800-
CENTRAL ILLINOIS

CITY           SKY/WX    TMP DP  RH WIND       PRES   REMARKS
PONTIAC        CLOUDY    47  46  96 W14       29.65F
BLOOMINGTON    CLOUDY    47  42  83 W14       29.68F
DECATUR        PTCLDY    47  43  86 W13       29.73S
PEORIA         CLOUDY    49  38  65 W9G21     29.69F
LACON*         CLOUDY    49  39  70 W15G21    29.65F
LINCOLN*       CLOUDY    49  43  79 W8        29.72S
SPRINGFIELD    CLOUDY    50  42  74 W13       29.75F
TAYLORVILLE    CLOUDY    48  40  74 W10G16    29.76F
$$

ILZ033-039-045-046-055>057-062-063-240800-
EAST-CENTRAL ILLINOIS

CITY           SKY/WX    TMP DP  RH WIND       PRES   REMARKS
DANVILLE*      CLOUDY    48  47  95 SW13      29.64F
RANTOUL*       PTCLDY    48  46  93 W9        29.67S
MATTOON        MOCLDY    49  46  90 W13       29.72S
PARIS*         CLOUDY    48  46  93 W12G17    29.71F
$$

ILZ079-100>102-240800-
SOUTHWEST ILLINOIS

CITY           SKY/WX    TMP DP  RH WIND       PRES   REMARKS
ALTON          RAIN      52  41  67 NW17G30   29.81S
BELLEVILLE     CLOUDY    53  39  59 W9        29.80F
CAHOKIA*       CLOUDY    56  35  45 W22G30    29.83F
SPARTA*        PTCLDY    50  40  66 W8        29.84F
$$

ILZ064>066-069>071-074>076-080>082-084>086-088>090-092>094-240800-
SOUTH-CENTRAL ILLINOIS

CITY           SKY/WX    TMP DP  RH WIND       PRES   REMARKS
CARBONDALE     PTCLDY    53  42  66 W14       29.84F
CAIRO*         CLEAR     53  44  69 W7        29.87S
EFFINGHAM*     PTCLDY    50  44  80 W15       29.77S
MARION         PTCLDY    54  43  67 W6        29.84S
MT. VERNON     PTCLDY    51  43  74 VRB5      29.80F
CENTRALIA*     MOCLDY    51  44  77 W7        29.79F
SALEM*         PTCLDY    53  41  64 NW13      29.79S
METROPOLIS*    PTCLDY    55  43  64 W10       29.86S
$$

ILZ067-068-072-073-078-083-087-091-240800-
SOUTHEAST ILLINOIS

CITY           SKY/WX    TMP DP  RH WIND       PRES   REMARKS
LAWRENCEVILLE  LGT RAIN  52  32  46 W8        29.75F
FLORA*         PTCLDY    54  44  70 W13G20    29.77S
FAIRFIELD*     CLOUDY    49  46  88 W3        29.78F
HARRISBURG*    PTCLDY    51  46  84 S6        29.82F
ROBINSON*      CLOUDY    49  47  92 W8        29.76S
CARMI*         CLOUDY    51  47  87 W5        29.79F
$$

ABBREVIATIONS USED IN REMARKS
   TC - TEMPERATURE IN CELSIUS
  WCI - WIND CHILL INDEX
   HX - HEAT INDEX
  VSB - VISIBILITY
$$





USA.gov is the U.S. government's official web portal to all federal, state and local government web resources and services.